AAL3319 KDCA-KMIA

Flight info

Callsign AAL3319
Flight time 2h 9m
Altitude 34000
Route AMEEE1 SCOOB EARZZ SKARP Y313 HOAGG BNFSH3
Aircraft B738/M-SDE2E3FGHIRWXY/LB1

Departure

Time 2026-04-20 13:40
Airport Ronald Reagan Washington National Airport (KDCA)

Arrival

Time 2026-04-20 15:49
Airport Miami International Airport (KMIA)
Time Latitude Longitude Altitude Speed Heading
2026-04-20 12:57 38.85423 -77.04066 24 ft 0 kts 262°
2026-04-20 13:27 38.85423 -77.04065 24 ft 1 kts 262°
2026-04-20 13:27 38.85424 -77.04039 28 ft 4 kts 268°
2026-04-20 13:28 38.85419 -77.04010 26 ft 4 kts 325°
2026-04-20 13:28 38.85396 -77.04001 24 ft 3 kts 355°
2026-04-20 13:28 38.85389 -77.04000 24 ft 0 kts 355°
2026-04-20 13:33 38.85404 -77.04002 29 ft 3 kts 355°
2026-04-20 13:33 38.85425 -77.04004 27 ft 3 kts 355°
2026-04-20 13:34 38.85449 -77.04006 26 ft 4 kts 354°
2026-04-20 13:34 38.85482 -77.04011 25 ft 6 kts 352°
2026-04-20 13:34 38.85523 -77.04023 26 ft 6 kts 348°
2026-04-20 13:34 38.85557 -77.04000 28 ft 6 kts 67°
2026-04-20 13:35 38.85538 -77.03959 27 ft 6 kts 157°
2026-04-20 13:35 38.85489 -77.03950 26 ft 9 kts 175°
2026-04-20 13:35 38.85406 -77.03942 26 ft 16 kts 175°
2026-04-20 13:35 38.85280 -77.03929 20 ft 19 kts 175°
2026-04-20 13:36 38.85149 -77.03916 21 ft 19 kts 175°
2026-04-20 13:36 38.85022 -77.03904 20 ft 18 kts 175°
2026-04-20 13:36 38.84900 -77.03890 19 ft 17 kts 174°
2026-04-20 13:36 38.84782 -77.03878 23 ft 17 kts 176°
2026-04-20 13:37 38.84669 -77.03869 25 ft 16 kts 176°
2026-04-20 13:37 38.84560 -77.03858 23 ft 15 kts 175°
2026-04-20 13:37 38.84455 -77.03847 26 ft 15 kts 174°
2026-04-20 13:37 38.84355 -77.03836 26 ft 14 kts 175°
2026-04-20 13:38 38.84259 -77.03823 29 ft 14 kts 166°
2026-04-20 13:38 38.84212 -77.03763 25 ft 9 kts 120°
2026-04-20 13:38 38.84181 -77.03699 23 ft 5 kts 113°
2026-04-20 13:38 38.84198 -77.03679 25 ft 3 kts 354°
2026-04-20 13:39 38.84206 -77.03680 25 ft 0 kts 354°
2026-04-20 13:39 38.84233 -77.03684 22 ft 20 kts 354°
2026-04-20 13:39 38.84634 -77.03726 23 ft 93 kts 355°
2026-04-20 13:39 38.85495 -77.03817 36 ft 152 kts 355°
2026-04-20 13:40 38.86605 -77.04016 557 ft 167 kts 340°
2026-04-20 13:40 38.87626 -77.04713 1473 ft 166 kts 322°
2026-04-20 13:40 38.88560 -77.05634 2225 ft 178 kts 320°
2026-04-20 13:40 38.89586 -77.06679 2581 ft 197 kts 319°
2026-04-20 13:41 38.90497 -77.08039 3007 ft 210 kts 298°
2026-04-20 13:41 38.91183 -77.09804 3340 ft 231 kts 297°
2026-04-20 13:41 38.92229 -77.11399 4104 ft 240 kts 322°
2026-04-20 13:41 38.93675 -77.12523 4971 ft 246 kts 326°
2026-04-20 13:42 38.95152 -77.13689 5727 ft 250 kts 324°
2026-04-20 13:42 38.98549 -77.14947 7280 ft 277 kts
2026-04-20 13:42 39.00363 -77.14047 8155 ft 287 kts 28°
2026-04-20 13:43 39.01962 -77.12464 8968 ft 294 kts 36°
2026-04-20 13:43 39.03398 -77.10553 9664 ft 307 kts 52°
2026-04-20 13:43 39.04271 -77.07995 10348 ft 316 kts 77°
2026-04-20 13:43 39.04381 -77.05144 10972 ft 326 kts 97°
2026-04-20 13:44 39.03940 -77.02207 11329 ft 343 kts 105°
2026-04-20 13:44 39.03308 -76.99175 11680 ft 358 kts 112°
2026-04-20 13:44 39.02066 -76.96349 11959 ft 370 kts 133°
2026-04-20 13:44 39.00187 -76.94065 12348 ft 376 kts 150°
2026-04-20 13:45 38.97881 -76.92498 12809 ft 377 kts 166°
2026-04-20 13:45 38.95349 -76.91520 13312 ft 384 kts 171°
2026-04-20 13:45 38.92745 -76.90658 13943 ft 389 kts 172°
2026-04-20 13:45 38.90107 -76.89794 14535 ft 394 kts 172°
2026-04-20 13:46 38.87452 -76.88875 15153 ft 398 kts 171°
2026-04-20 13:46 38.84773 -76.87906 15764 ft 401 kts 171°
2026-04-20 13:46 38.82077 -76.86905 16292 ft 406 kts 172°
2026-04-20 13:46 38.79352 -76.85881 16850 ft 410 kts 172°
2026-04-20 13:47 38.76619 -76.84845 17531 ft 411 kts 172°
2026-04-20 13:47 38.74793 -76.84152 17926 ft 413 kts 173°
2026-04-20 13:47 38.72025 -76.83104 18476 ft 417 kts 173°
2026-04-20 13:47 38.69229 -76.82047 18957 ft 421 kts 173°
2026-04-20 13:48 38.66413 -76.80984 19451 ft 424 kts 173°
2026-04-20 13:48 38.63568 -76.79910 19924 ft 427 kts 173°
2026-04-20 13:48 38.60707 -76.78831 20382 ft 431 kts 174°
2026-04-20 13:48 38.57825 -76.77746 20780 ft 434 kts 174°
2026-04-20 13:49 38.54913 -76.76650 21220 ft 437 kts 174°
2026-04-20 13:49 38.51988 -76.75549 21701 ft 440 kts 174°
2026-04-20 13:49 38.49044 -76.74442 22175 ft 442 kts 174°
2026-04-20 13:49 38.46086 -76.73330 22620 ft 445 kts 174°
2026-04-20 13:50 38.43106 -76.72213 23061 ft 447 kts 174°
2026-04-20 13:50 38.40105 -76.71140 23472 ft 445 kts 178°
2026-04-20 13:50 38.37084 -76.70470 23870 ft 439 kts 184°
2026-04-20 13:50 38.34056 -76.70035 24245 ft 436 kts 185°
2026-04-20 13:51 38.31042 -76.69655 24734 ft 435 kts 185°
2026-04-20 13:51 38.28029 -76.69257 25104 ft 437 kts 185°
2026-04-20 13:51 38.24992 -76.68820 25409 ft 441 kts 184°
2026-04-20 13:51 38.21941 -76.68348 25723 ft 444 kts 184°
2026-04-20 13:52 38.18869 -76.67854 26057 ft 445 kts 184°
2026-04-20 13:52 38.15793 -76.67352 26392 ft 447 kts 184°
2026-04-20 13:52 38.12702 -76.66852 26659 ft 448 kts 184°
2026-04-20 13:52 38.09602 -76.66361 26911 ft 450 kts 184°
2026-04-20 13:53 38.06484 -76.66029 27145 ft 449 kts 187°
2026-04-20 13:53 38.03362 -76.65825 27454 ft 449 kts 188°
2026-04-20 13:53 38.00235 -76.65663 27771 ft 450 kts 188°
2026-04-20 13:53 37.97099 -76.65501 28057 ft 452 kts 188°
2026-04-20 13:54 37.93965 -76.65325 28365 ft 453 kts 188°
2026-04-20 13:54 37.90816 -76.65131 28775 ft 452 kts 188°
2026-04-20 13:54 37.87671 -76.64924 29164 ft 451 kts 188°
2026-04-20 13:54 37.84519 -76.64716 29299 ft 456 kts 187°
2026-04-20 13:55 37.81379 -76.64509 29518 ft 459 kts 187°
2026-04-20 13:55 37.78197 -76.64294 29956 ft 457 kts 188°
2026-04-20 13:55 37.75033 -76.64077 30432 ft 453 kts 188°
2026-04-20 13:55 37.71886 -76.63865 30712 ft 454 kts 188°
2026-04-20 13:56 37.68727 -76.63658 30873 ft 457 kts 187°
2026-04-20 13:56 37.65542 -76.63449 31082 ft 458 kts 187°
2026-04-20 13:56 37.62360 -76.63238 31347 ft 458 kts 187°
2026-04-20 13:56 37.59172 -76.63036 31596 ft 457 kts 188°
2026-04-20 13:57 37.56028 -76.63169 31786 ft 450 kts 195°
2026-04-20 13:57 37.52918 -76.63576 32005 ft 448 kts 197°
2026-04-20 13:57 37.49833 -76.64073 32239 ft 448 kts 197°
2026-04-20 13:57 37.46734 -76.64587 32456 ft 449 kts 197°
2026-04-20 13:58 37.43585 -76.65093 32667 ft 451 kts 196°
2026-04-20 13:58 37.40508 -76.65560 32885 ft 451 kts 196°
2026-04-20 13:58 37.37363 -76.66013 33270 ft 448 kts 195°
2026-04-20 13:58 37.34263 -76.66444 33531 ft 448 kts 195°
2026-04-20 13:59 37.31162 -76.66870 33697 ft 450 kts 195°
2026-04-20 13:59 37.28040 -76.67296 33893 ft 451 kts 195°
2026-04-20 13:59 37.24926 -76.67718 34150 ft 450 kts 194°
2026-04-20 13:59 37.21808 -76.68140 34232 ft 452 kts 194°
2026-04-20 14:00 37.15558 -76.68985 34234 ft 449 kts 194°
2026-04-20 14:00 37.09398 -76.69813 34234 ft 442 kts 195°
2026-04-20 14:01 37.03323 -76.70637 34245 ft 442 kts 195°
2026-04-20 14:01 36.97202 -76.71468 34249 ft 442 kts 195°
2026-04-20 14:02 36.91086 -76.72294 34243 ft 442 kts 195°
2026-04-20 14:02 36.84975 -76.73118 34265 ft 442 kts 195°
2026-04-20 14:03 36.78850 -76.73943 34268 ft 443 kts 195°
2026-04-20 14:03 36.72720 -76.74766 34225 ft 444 kts 195°
2026-04-20 14:04 36.66567 -76.75590 34258 ft 444 kts 195°
2026-04-20 14:04 36.60411 -76.76415 34269 ft 445 kts 195°
2026-04-20 14:05 36.54248 -76.77238 34270 ft 446 kts 195°
2026-04-20 14:05 36.48078 -76.78061 34212 ft 446 kts 195°
2026-04-20 14:06 36.41919 -76.78880 34259 ft 445 kts 196°
2026-04-20 14:06 36.35773 -76.79697 34268 ft 444 kts 196°
2026-04-20 14:07 36.29630 -76.80513 34273 ft 443 kts 196°
2026-04-20 14:07 36.23507 -76.81325 34255 ft 442 kts 196°
2026-04-20 14:08 36.17399 -76.82133 34273 ft 441 kts 196°
2026-04-20 14:08 36.11302 -76.82939 34284 ft 440 kts 196°
2026-04-20 14:09 36.05227 -76.83741 34285 ft 439 kts 196°
2026-04-20 14:09 35.99157 -76.84541 34252 ft 438 kts 197°
2026-04-20 14:10 35.93110 -76.85337 34274 ft 437 kts 197°
2026-04-20 14:10 35.90142 -76.85919 34276 ft 426 kts 205°
2026-04-20 14:10 35.87343 -76.86971 34313 ft 419 kts 208°
2026-04-20 14:11 35.81803 -76.89222 34302 ft 420 kts 208°
2026-04-20 14:11 35.76242 -76.91463 34279 ft 420 kts 209°
2026-04-20 14:12 35.70672 -76.93675 34291 ft 421 kts 208°
2026-04-20 14:12 35.65084 -76.95878 34304 ft 422 kts 208°
2026-04-20 14:13 35.59486 -76.98079 34304 ft 423 kts 208°
2026-04-20 14:13 35.53884 -77.00279 34242 ft 423 kts 208°
2026-04-20 14:14 35.48284 -77.02474 34293 ft 422 kts 209°
2026-04-20 14:14 35.42687 -77.04666 34303 ft 422 kts 208°
2026-04-20 14:15 35.37088 -77.06856 34299 ft 423 kts 208°
2026-04-20 14:15 35.31521 -77.09031 34298 ft 423 kts 208°
2026-04-20 14:16 35.25883 -77.11229 34299 ft 423 kts 208°
2026-04-20 14:16 35.20274 -77.13413 34293 ft 423 kts 208°
2026-04-20 14:17 35.14671 -77.15591 34312 ft 422 kts 208°
2026-04-20 14:17 35.09073 -77.17764 34311 ft 422 kts 208°
2026-04-20 14:18 35.03518 -77.19917 34307 ft 421 kts 208°
2026-04-20 14:18 34.97942 -77.22076 34306 ft 420 kts 208°
2026-04-20 14:19 34.92371 -77.24230 34323 ft 420 kts 209°
2026-04-20 14:19 34.86789 -77.26386 34316 ft 421 kts 209°
2026-04-20 14:20 34.81210 -77.28537 34242 ft 420 kts 209°
2026-04-20 14:20 34.75648 -77.30677 34305 ft 419 kts 209°
2026-04-20 14:21 34.70078 -77.32819 34314 ft 420 kts 209°
2026-04-20 14:21 34.64505 -77.34959 34314 ft 420 kts 209°
2026-04-20 14:22 34.58927 -77.37098 34316 ft 421 kts 208°
2026-04-20 14:22 34.53343 -77.39236 34306 ft 421 kts 208°
2026-04-20 14:23 34.47722 -77.41294 34312 ft 428 kts 204°
2026-04-20 14:23 34.41778 -77.42520 34314 ft 435 kts 200°
2026-04-20 14:24 34.35784 -77.43609 34316 ft 435 kts 200°
2026-04-20 14:24 34.29808 -77.44731 34306 ft 434 kts 200°
2026-04-20 14:25 34.23846 -77.45884 34313 ft 434 kts 200°
2026-04-20 14:25 34.17922 -77.47041 34311 ft 434 kts 200°
2026-04-20 14:26 34.11949 -77.48206 34313 ft 435 kts 200°
2026-04-20 14:26 34.05976 -77.49368 34294 ft 434 kts 200°
2026-04-20 14:27 34.00009 -77.50526 34311 ft 435 kts 200°
2026-04-20 14:27 33.94034 -77.51685 34315 ft 435 kts 200°
2026-04-20 14:28 33.88046 -77.52845 34308 ft 436 kts 200°
2026-04-20 14:28 33.82056 -77.54003 34284 ft 436 kts 200°
2026-04-20 14:29 33.76058 -77.55160 34299 ft 437 kts 200°
2026-04-20 14:29 33.70058 -77.56317 34309 ft 437 kts 200°
2026-04-20 14:30 33.64053 -77.57473 34310 ft 438 kts 200°
2026-04-20 14:30 33.58042 -77.58645 34248 ft 436 kts 202°
2026-04-20 14:31 33.52287 -77.60495 34310 ft 427 kts 207°
2026-04-20 14:31 33.46600 -77.62570 34308 ft 428 kts 207°
2026-04-20 14:32 33.40882 -77.64626 34308 ft 430 kts 207°
2026-04-20 14:32 33.35173 -77.66636 34305 ft 431 kts 207°
2026-04-20 14:33 33.29420 -77.68642 34306 ft 431 kts 207°
2026-04-20 14:33 33.23654 -77.70648 34300 ft 432 kts 207°
2026-04-20 14:34 33.17873 -77.72658 34305 ft 433 kts 207°
2026-04-20 14:34 33.12087 -77.74668 34305 ft 433 kts 207°
2026-04-20 14:35 33.06296 -77.76676 34255 ft 434 kts 206°
2026-04-20 14:35 33.00505 -77.78682 34289 ft 433 kts 206°
2026-04-20 14:36 32.95692 -77.80347 34304 ft 434 kts 206°
2026-04-20 14:36 32.89887 -77.82354 34302 ft 435 kts 206°
2026-04-20 14:37 32.84081 -77.84358 34303 ft 435 kts 206°
2026-04-20 14:37 32.78259 -77.86364 34302 ft 435 kts 206°
2026-04-20 14:38 32.72440 -77.88367 34296 ft 436 kts 206°
2026-04-20 14:38 32.66619 -77.90366 34292 ft 436 kts 206°
2026-04-20 14:39 32.60766 -77.92292 34294 ft 437 kts 206°
2026-04-20 14:39 32.54902 -77.94176 34262 ft 436 kts 206°
2026-04-20 14:40 32.49049 -77.96060 34286 ft 436 kts 206°
2026-04-20 14:40 32.43192 -77.97953 34291 ft 436 kts 206°
2026-04-20 14:41 32.37330 -77.99848 34293 ft 437 kts 206°
2026-04-20 14:41 32.31455 -78.01745 34242 ft 438 kts 206°
2026-04-20 14:42 32.25574 -78.03641 34275 ft 438 kts 206°
2026-04-20 14:42 32.19675 -78.05540 34284 ft 440 kts 206°
2026-04-20 14:43 32.13763 -78.07441 34281 ft 441 kts 206°
2026-04-20 14:43 32.07835 -78.09344 34281 ft 442 kts 206°
2026-04-20 14:44 32.01891 -78.11249 34259 ft 442 kts 206°
2026-04-20 14:44 31.95943 -78.13153 34275 ft 444 kts 206°
2026-04-20 14:45 31.89981 -78.15061 34280 ft 445 kts 206°
2026-04-20 14:45 31.83996 -78.16972 34277 ft 446 kts 206°
2026-04-20 14:46 31.78004 -78.18882 34241 ft 447 kts 206°
2026-04-20 14:46 31.72004 -78.20792 34262 ft 447 kts 206°
2026-04-20 14:47 31.65995 -78.22703 34271 ft 447 kts 206°
2026-04-20 14:48 31.56986 -78.25564 34266 ft 448 kts 206°
2026-04-20 14:48 31.51011 -78.27458 34221 ft 447 kts 206°
2026-04-20 14:49 31.45024 -78.29365 34257 ft 446 kts 207°
2026-04-20 14:49 31.39067 -78.31356 34262 ft 445 kts 207°
2026-04-20 14:50 31.33122 -78.33365 34264 ft 445 kts 207°
2026-04-20 14:50 31.27165 -78.35367 34259 ft 445 kts 207°
2026-04-20 14:51 31.21213 -78.37356 34247 ft 445 kts 207°
2026-04-20 14:51 31.15257 -78.39342 34255 ft 445 kts 207°
2026-04-20 14:52 31.09296 -78.41328 34257 ft 446 kts 207°
2026-04-20 14:52 31.03325 -78.43314 34257 ft 446 kts 207°
2026-04-20 14:53 30.97353 -78.45298 34234 ft 446 kts 207°
2026-04-20 14:53 30.91375 -78.47280 34245 ft 447 kts 207°
2026-04-20 14:54 30.85397 -78.49261 34249 ft 447 kts 207°
2026-04-20 14:54 30.79398 -78.51246 34248 ft 448 kts 207°
2026-04-20 14:55 30.73400 -78.53229 34245 ft 449 kts 207°
2026-04-20 14:55 30.67396 -78.55209 34236 ft 448 kts 207°
2026-04-20 14:56 30.61387 -78.57190 34245 ft 449 kts 207°
2026-04-20 14:56 30.55365 -78.59173 34236 ft 450 kts 207°
2026-04-20 14:57 30.49330 -78.61158 34237 ft 451 kts 207°
2026-04-20 14:57 30.43276 -78.63145 34219 ft 452 kts 206°
2026-04-20 14:58 30.37223 -78.65129 34228 ft 452 kts 206°
2026-04-20 14:58 30.31167 -78.67113 34236 ft 453 kts 206°
2026-04-20 14:59 30.25102 -78.69097 34218 ft 453 kts 206°
2026-04-20 14:59 30.19081 -78.71063 34228 ft 453 kts 206°
2026-04-20 15:00 30.12978 -78.73053 34224 ft 453 kts 206°
2026-04-20 15:00 30.06956 -78.75014 34226 ft 453 kts 206°
2026-04-20 15:01 30.00897 -78.76985 34227 ft 452 kts 206°
2026-04-20 15:01 29.94835 -78.78955 34222 ft 452 kts 206°
2026-04-20 15:02 29.88788 -78.80918 34209 ft 451 kts 206°
2026-04-20 15:02 29.82747 -78.82877 34207 ft 450 kts 206°
2026-04-20 15:03 29.76677 -78.84715 34211 ft 457 kts 200°
2026-04-20 15:03 29.70321 -78.85662 34223 ft 463 kts 195°
2026-04-20 15:04 29.63899 -78.86348 34177 ft 463 kts 195°
2026-04-20 15:04 29.57503 -78.87108 34203 ft 461 kts 196°
2026-04-20 15:05 29.51132 -78.87944 34211 ft 460 kts 196°
2026-04-20 15:05 29.44771 -78.88803 34205 ft 460 kts 196°
2026-04-20 15:06 29.38406 -78.89663 34207 ft 460 kts 196°
2026-04-20 15:06 29.32048 -78.90518 34198 ft 459 kts 196°
2026-04-20 15:07 29.25695 -78.91368 34197 ft 460 kts 196°
2026-04-20 15:07 29.19340 -78.92218 34197 ft 460 kts 196°
2026-04-20 15:08 29.12981 -78.93068 34193 ft 460 kts 196°
2026-04-20 15:08 29.06609 -78.93918 34155 ft 461 kts 196°
2026-04-20 15:09 29.00234 -78.94769 34189 ft 463 kts 196°
2026-04-20 15:09 28.93861 -78.95619 34182 ft 465 kts 196°
2026-04-20 15:10 28.87430 -78.96473 34185 ft 466 kts 196°
2026-04-20 15:10 28.80975 -78.97329 34186 ft 467 kts 196°
2026-04-20 15:11 28.74519 -78.98185 34183 ft 468 kts 196°
2026-04-20 15:11 28.68037 -78.99044 34192 ft 469 kts 196°
2026-04-20 15:12 28.61536 -78.99904 34179 ft 471 kts 196°
2026-04-20 15:12 28.55023 -79.00764 34178 ft 472 kts 196°
2026-04-20 15:13 28.48496 -79.01625 34160 ft 473 kts 196°
2026-04-20 15:13 28.41953 -79.02487 34173 ft 474 kts 196°
2026-04-20 15:14 28.35400 -79.03350 34175 ft 475 kts 197°
2026-04-20 15:14 28.32188 -79.04031 34161 ft 463 kts 206°
2026-04-20 15:14 28.29139 -79.05106 34175 ft 459 kts 208°
2026-04-20 15:15 28.23126 -79.07499 34170 ft 458 kts 210°
2026-04-20 15:15 28.17104 -79.09872 34163 ft 458 kts 210°
2026-04-20 15:16 28.11061 -79.12162 34161 ft 458 kts 210°
2026-04-20 15:16 28.05011 -79.14412 34164 ft 457 kts 210°
2026-04-20 15:17 27.98977 -79.16648 34163 ft 456 kts 210°
2026-04-20 15:17 27.92957 -79.18879 34124 ft 454 kts 210°
2026-04-20 15:18 27.86971 -79.21097 34148 ft 452 kts 210°
2026-04-20 15:18 27.81007 -79.23305 34158 ft 450 kts 210°
2026-04-20 15:19 27.75067 -79.25503 34157 ft 449 kts 210°
2026-04-20 15:19 27.69147 -79.27690 34161 ft 447 kts 210°
2026-04-20 15:20 27.63237 -79.29872 34130 ft 447 kts 210°
2026-04-20 15:20 27.57327 -79.32052 34153 ft 447 kts 210°
2026-04-20 15:21 27.51411 -79.34230 34164 ft 448 kts 210°
2026-04-20 15:21 27.45487 -79.36410 34159 ft 449 kts 210°
2026-04-20 15:21 27.42514 -79.37502 34013 ft 452 kts 210°
2026-04-20 15:22 27.39504 -79.38613 33402 ft 456 kts 209°
2026-04-20 15:22 27.36495 -79.39715 32751 ft 454 kts 208°
2026-04-20 15:22 27.34506 -79.40442 32306 ft 454 kts 208°
2026-04-20 15:22 27.31507 -79.41541 31610 ft 454 kts 207°
2026-04-20 15:23 27.28497 -79.42644 30893 ft 455 kts 206°
2026-04-20 15:23 27.24511 -79.44103 30112 ft 452 kts 206°
2026-04-20 15:23 27.21525 -79.45193 29480 ft 449 kts 206°
2026-04-20 15:23 27.18570 -79.46271 28923 ft 444 kts 206°
2026-04-20 15:24 27.15656 -79.47335 28404 ft 439 kts 206°
2026-04-20 15:24 27.13695 -79.48051 28036 ft 436 kts 206°
2026-04-20 15:24 27.10821 -79.49103 27513 ft 432 kts 206°
2026-04-20 15:24 27.07981 -79.50141 26971 ft 428 kts 205°
2026-04-20 15:25 27.05164 -79.51169 26472 ft 424 kts 205°
2026-04-20 15:25 27.02364 -79.52189 25975 ft 421 kts 205°
2026-04-20 15:25 26.99587 -79.53201 25477 ft 418 kts 205°
2026-04-20 15:25 26.96825 -79.54208 24953 ft 417 kts 205°
2026-04-20 15:26 26.94070 -79.55212 24435 ft 415 kts 205°
2026-04-20 15:26 26.91368 -79.56196 23935 ft 413 kts 204°
2026-04-20 15:26 26.88641 -79.57187 23366 ft 412 kts 204°
2026-04-20 15:26 26.85922 -79.58170 22803 ft 409 kts 204°
2026-04-20 15:27 26.83222 -79.59142 22282 ft 406 kts 204°
2026-04-20 15:27 26.80541 -79.60107 21780 ft 402 kts 204°
2026-04-20 15:27 26.77894 -79.61060 21271 ft 398 kts 204°
2026-04-20 15:27 26.75263 -79.62008 20794 ft 395 kts 203°
2026-04-20 15:28 26.72659 -79.62946 20317 ft 392 kts 203°
2026-04-20 15:28 26.70107 -79.63864 20239 ft 378 kts 203°
2026-04-20 15:28 26.67633 -79.64753 20228 ft 372 kts 204°
2026-04-20 15:28 26.65162 -79.65645 20231 ft 374 kts 203°
2026-04-20 15:29 26.62696 -79.66534 19984 ft 370 kts 203°
2026-04-20 15:29 26.60246 -79.67403 19643 ft 367 kts 203°
2026-04-20 15:29 26.57831 -79.68245 19123 ft 361 kts 202°
2026-04-20 15:29 26.55443 -79.69077 18419 ft 360 kts 202°
2026-04-20 15:30 26.53056 -79.69912 17664 ft 358 kts 202°
2026-04-20 15:30 26.50693 -79.70738 16969 ft 354 kts 202°
2026-04-20 15:30 26.48369 -79.71549 16481 ft 347 kts 201°
2026-04-20 15:30 26.46124 -79.72495 16043 ft 341 kts 214°
2026-04-20 15:31 26.44327 -79.74110 15836 ft 328 kts 229°
2026-04-20 15:31 26.42786 -79.75998 15626 ft 332 kts 231°
2026-04-20 15:31 26.41234 -79.77951 15406 ft 340 kts 231°
2026-04-20 15:31 26.39644 -79.79920 15162 ft 341 kts 230°
2026-04-20 15:32 26.38068 -79.81879 14929 ft 337 kts 233°
2026-04-20 15:32 26.36707 -79.83973 14707 ft 330 kts 238°
2026-04-20 15:32 26.35450 -79.86081 14487 ft 323 kts 239°
2026-04-20 15:32 26.34207 -79.88135 14275 ft 316 kts 238°
2026-04-20 15:33 26.32972 -79.90133 14063 ft 310 kts 238°
2026-04-20 15:33 26.31760 -79.92081 13855 ft 303 kts 237°
2026-04-20 15:33 26.30564 -79.93992 13632 ft 297 kts 237°
2026-04-20 15:33 26.29390 -79.95866 13428 ft 294 kts 237°
2026-04-20 15:34 26.28221 -79.97731 13240 ft 293 kts 237°
2026-04-20 15:34 26.27054 -79.99593 13045 ft 293 kts 237°
2026-04-20 15:34 26.25786 -80.01361 12832 ft 295 kts 222°
2026-04-20 15:34 26.23999 -80.02497 12668 ft 299 kts 202°
2026-04-20 15:35 26.21978 -80.03077 12468 ft 301 kts 194°
2026-04-20 15:35 26.19920 -80.03522 12270 ft 301 kts 193°
2026-04-20 15:35 26.17855 -80.03955 12069 ft 302 kts 193°
2026-04-20 15:35 26.15795 -80.04397 11882 ft 302 kts 193°
2026-04-20 15:36 26.13733 -80.04853 11651 ft 302 kts 194°
2026-04-20 15:36 26.11671 -80.05318 11455 ft 302 kts 193°
2026-04-20 15:36 26.09611 -80.05787 11265 ft 302 kts 193°
2026-04-20 15:36 26.07551 -80.06257 11066 ft 302 kts 193°
2026-04-20 15:37 26.05494 -80.06753 10822 ft 302 kts 194°
2026-04-20 15:37 26.03458 -80.07284 10568 ft 299 kts 195°
2026-04-20 15:37 26.01447 -80.07816 10319 ft 295 kts 194°
2026-04-20 15:37 25.99458 -80.08338 10075 ft 292 kts 194°
2026-04-20 15:38 25.97497 -80.08850 9820 ft 289 kts 194°
2026-04-20 15:38 25.95550 -80.09356 9556 ft 285 kts 194°
2026-04-20 15:38 25.93633 -80.09854 9307 ft 281 kts 195°
2026-04-20 15:38 25.91887 -80.10747 9048 ft 275 kts 221°
2026-04-20 15:39 25.90555 -80.12232 8856 ft 270 kts 229°
2026-04-20 15:39 25.89301 -80.13792 8628 ft 271 kts 229°
2026-04-20 15:39 25.88212 -80.15479 8376 ft 270 kts 249°
2026-04-20 15:39 25.87824 -80.17492 8183 ft 267 kts 265°
2026-04-20 15:40 25.87752 -80.19557 7948 ft 272 kts 268°
2026-04-20 15:40 25.87729 -80.21727 7527 ft 289 kts 269°
2026-04-20 15:40 25.87686 -80.23975 6984 ft 299 kts 268°
2026-04-20 15:40 25.87624 -80.26320 6582 ft 302 kts 267°
2026-04-20 15:41 25.87633 -80.28655 6103 ft 312 kts 278°
2026-04-20 15:41 25.88404 -80.30945 5712 ft 317 kts 299°
2026-04-20 15:41 25.89472 -80.33064 5267 ft 310 kts 299°
2026-04-20 15:41 25.90478 -80.35078 5016 ft 295 kts 299°
2026-04-20 15:42 25.91457 -80.37067 4701 ft 284 kts 299°
2026-04-20 15:42 25.92381 -80.38959 4398 ft 274 kts 299°
2026-04-20 15:42 25.93258 -80.40765 4121 ft 264 kts 298°
2026-04-20 15:42 25.93767 -80.42670 4009 ft 254 kts 273°
2026-04-20 15:43 25.93749 -80.44611 3995 ft 242 kts 270°
2026-04-20 15:43 25.93711 -80.46430 4010 ft 229 kts 270°
2026-04-20 15:43 25.93631 -80.48147 3950 ft 219 kts 260°
2026-04-20 15:43 25.92963 -80.49608 3785 ft 212 kts 225°
2026-04-20 15:44 25.91727 -80.50390 3651 ft 204 kts 193°
2026-04-20 15:44 25.90344 -80.50353 3524 ft 204 kts 161°
2026-04-20 15:44 25.89206 -80.49432 3389 ft 204 kts 118°
2026-04-20 15:44 25.88746 -80.47956 3308 ft 201 kts 107°
2026-04-20 15:45 25.88203 -80.46552 3186 ft 198 kts 116°
2026-04-20 15:45 25.87574 -80.45213 2945 ft 198 kts 117°
2026-04-20 15:45 25.86898 -80.43858 2721 ft 206 kts 118°
2026-04-20 15:45 25.86164 -80.42417 2413 ft 214 kts 118°
2026-04-20 15:46 25.85448 -80.41016 2140 ft 209 kts 118°
2026-04-20 15:46 25.84736 -80.39627 1885 ft 206 kts 119°
2026-04-20 15:46 25.84041 -80.38268 1584 ft 197 kts 118°
2026-04-20 15:46 25.83388 -80.36993 1359 ft 183 kts 118°
2026-04-20 15:47 25.82783 -80.35808 1161 ft 168 kts 118°
2026-04-20 15:47 25.82227 -80.34718 915 ft 156 kts 118°
2026-04-20 15:47 25.81698 -80.33690 731 ft 152 kts 118°
2026-04-20 15:47 25.81184 -80.32668 539 ft 151 kts 118°
2026-04-20 15:48 25.80663 -80.31657 336 ft 151 kts 118°
2026-04-20 15:48 25.80144 -80.30649 154 ft 149 kts 117°
2026-04-20 15:48 25.79635 -80.29654 16 ft 144 kts 118°
2026-04-20 15:48 25.79214 -80.28825 12 ft 102 kts 119°
2026-04-20 15:49 25.78939 -80.28284 18 ft 59 kts 119°
2026-04-20 15:49 25.78795 -80.28001 18 ft 35 kts 120°
2026-04-20 15:49 25.78767 -80.27782 18 ft 27 kts 87°
2026-04-20 15:49 25.78814 -80.27667 17 ft 14 kts
2026-04-20 15:50 25.78870 -80.27739 17 ft 13 kts 283°
2026-04-20 15:50 25.78876 -80.27838 19 ft 13 kts 265°
2026-04-20 15:50 25.78874 -80.27935 21 ft 12 kts 283°
2026-04-20 15:50 25.78913 -80.28021 21 ft 12 kts 299°
2026-04-20 15:51 25.78953 -80.28101 21 ft 12 kts 298°
2026-04-20 15:51 25.79002 -80.28200 20 ft 17 kts 300°
2026-04-20 15:51 25.79069 -80.28325 20 ft 20 kts 300°
2026-04-20 15:51 25.79148 -80.28463 16 ft 21 kts 305°
2026-04-20 15:52 25.79223 -80.28600 14 ft 21 kts 298°
2026-04-20 15:52 25.79292 -80.28734 12 ft 19 kts 299°
2026-04-20 15:52 25.79355 -80.28794 12 ft 12 kts 356°
2026-04-20 15:53 25.79529 -80.28803 18 ft 15 kts 357°
2026-04-20 15:53 25.79650 -80.28809 19 ft 19 kts 358°
2026-04-20 15:53 25.79782 -80.28816 19 ft 19 kts 357°
2026-04-20 15:53 25.79894 -80.28821 21 ft 11 kts 359°
2026-04-20 15:54 25.79935 -80.28763 24 ft 11 kts 86°
2026-04-20 15:54 25.79939 -80.28682 20 ft 10 kts 87°
2026-04-20 15:54 25.79942 -80.28603 18 ft 10 kts 87°
2026-04-20 15:54 25.79946 -80.28517 16 ft 12 kts 87°
2026-04-20 15:55 25.79938 -80.28444 15 ft 8 kts 123°
2026-04-20 15:55 25.79887 -80.28430 16 ft 8 kts 204°
2026-04-20 15:55 25.79853 -80.28459 19 ft 4 kts 214°
2026-04-20 15:55 25.79826 -80.28464 18 ft 4 kts 179°
2026-04-20 15:56 25.79817 -80.28463 18 ft 1 kts 178°
2026-04-20 15:56 25.79815 -80.28463 18 ft 0 kts 178°